Simultaneous Nadir Overpasses (SNOs) Predictions

Prediction of SNOs between LANDSAT-8 and METOP-A Satellite Orbit:

Table of predicted SNOs for the next 14.0 days since TLE Epoch: 9/13/2016
Index Date (LANDSAT-8) Time (LANDSAT-8) Lat,Lon (LANDSAT-8) SZA (LANDSAT-8 ) Date (METOP-A) Time (METOP-A) Lat,Lon (METOP-A) SZA (METOP-A ) Distance(km) Time Diff (sec)
1 09/15/2016 06:11:19 -81.09, -53.26 99.60 09/15/2016 06:10:07 -81.09, -53.46 99.65 3.30 72
2 09/15/2016 07:00:44 81.12, 114.79 80.48 09/15/2016 07:00:45 81.13, 114.85 80.49 1.21 1
3 09/15/2016 07:49:57 -81.41, -72.33 98.75 09/15/2016 07:51:11 -81.27, -72.07 98.78 16.64 74
4 09/18/2016 01:45:34 -81.10, 13.33 98.47 09/18/2016 01:44:29 -81.11, 13.41 98.49 1.47 65
5 09/18/2016 02:34:59 81.13,-178.65 81.61 09/18/2016 02:35:08 81.13,-178.67 81.61 0.29 9
6
